Regional Weather Roundup
Issued by NWS Goodland, KS

Home | Current Version | Previous Version | Graphics & Text | Print | Product List | Glossary On
Versions: 1 2 3 4 5 6 7 8 9 10 11 12 13 14 15 16 17 18 19 20 21 22 23 24 25 26 27 28 29 30 31 32 33 34 35 36 37 38 39 40 41 42 43 44 45 46 47 48 49 50
000
ASUS43 KGLD 060408
RWRGLD

GOODLAND FORECAST AREA HOURLY WEATHER ROUNDUP
NATIONAL WEATHER SERVICE GOODLAND KS
900 PM MST THU MAR 05 2015

...OFFICIAL OBSERVATIONS...

CITY           SKY/WX    TMP DP  RH WIND       PRES   REMARKS
GOODLAND KS    CLEAR     28  18  66 W10       30.29R WCI  19
HILL CITY KS   CLEAR     35  13  40 SW7       30.29R
IMPERIAL NEB     N/A     33  14  45 W12       30.25R
MCCOOK NEB     CLEAR     32  16  51 SW10      30.24S
AKRON CO       CLEAR     28  17  63 S6        30.26S
BURLINGTON CO  CLEAR     27  20  75 W9        30.28R
LIMON CO       PTCLDY    12   9  87 W5        30.28S
$$

...UNOFFICIAL OBSERVATIONS...

CITY           SKY/WX    TMP DP  RH WIND       PRES   REMARKS
COLBY KS       CLEAR     28  23  80 SW12      30.29R WCI  18
GOVE KS          N/A     31  32 100 MISG        N/A
NORTON KS      CLEAR     25   7  46 SW6       30.25S
SHARON SPRINGS   N/A     29  20  67 S6          N/A
YUMA CO          N/A     24  15  67 SW7         N/A
$$



USA.gov is the U.S. government's official web portal to all federal, state and local government web resources and services.